Location: North Petersburg
(42.8231°N, 73.3323°W)
Time: 05:37:19
(UTC+00:00)

Daily predictions for brighter satellites

Satellite Brightness Start Highest point End
(mag) Time Altitude Azimuth Time Altitude Azimuth Time Altitude Azimuth
NOSS 2-3 (C) 3.2 00:02:32 10° SW 00:06:09 87° WNW 00:10:08 10° NE
Resurs 1-3 3.6 00:02:46 10° SSE 00:07:05 72° ENE 00:11:26 10° N
BREEZE-M DEB (TANK) 4.5 00:04:31 10° WSW 00:08:34 75° NNW 00:23:16 10° ENE
Meteor 2-10 Rocket 4.3 00:04:46 10° SSW 00:09:42 56° WNW 00:14:39 10° N
Cosmos 2218 Rocket 4.5 00:04:17 10° N 00:10:23 43° ENE 00:16:24 10° SSE
NOSS 2-3 (D) 3.2 00:07:41 10° SW 00:11:19 83° NW 00:15:17 10° NE
ATLAS 3B R/B 3.9 00:06:59 10° SSE 00:11:44 20° ESE 00:16:41 10° ENE
Cosmos 1025 Rocket 3.5 00:08:47 10° N 00:12:56 41° ENE 00:17:03 10° SSE
BREEZE-M R/B 4.1 00:11:40 10° WNW 00:14:08 23° NNW 00:16:12 10° NE
Okean O Rocket 2.3 00:13:01 10° SE 00:16:57 36° ENE 00:20:57 10° N
USA 281 3.8 00:13:15 10° ESE 00:19:18 41° NE 00:25:23 10° NNW
NOSS 2-2 (E) 4.1 00:16:56 10° SW 00:20:02 43° NW 00:23:03 10° NNE
Resurs 01 Rocket 2.1 00:18:21 10° SE 00:22:28 41° ENE 00:26:39 10° N
Cosmos 1975 Rocket 3.9 00:20:53 10° NNE 00:24:42 30° ENE 00:28:04 12° SE
CARTOSAT-1 4.1 00:21:42 10° SE 00:25:40 39° ENE 00:29:39 10° N
Cosmos 1656 Rocket 3.9 00:20:41 10° SSW 00:26:13 76° WNW 00:31:44 10° NNE
Cosmos 1302 Rocket 4.0 00:22:19 10° S 00:27:32 65° ESE 00:32:44 10° NNE
Cosmos 1346 Rocket 2.7 00:24:01 10° S 00:27:47 62° E 00:31:34 10° NNE
SJ-6B 3.4 00:25:34 10° S 00:29:27 61° W 00:33:24 10° NNW
Meteor 1-21 Rocket 4.4 00:24:29 10° N 00:30:22 62° ENE 00:36:13 10° SSE
Cosmos 1328 3.6 00:28:28 10° N 00:32:14 66° E 00:35:59 10° SSE
OAO 3 Rocket 4.2 00:28:13 10° WSW 00:32:34 33° S 00:35:52 16° SE
NOSS 2-2 (D) 3.9 00:31:12 10° SW 00:34:24 46° NW 00:37:26 10° NNE
SL-27 R/B 4.3 00:37:02 10° NE 00:38:11 12° ENE 00:38:26 12° ENE
Cosmos 1782 Rocket 3.5 00:35:02 10° S 00:39:20 68° E 00:43:43 10° NNE
Cosmos 864 Rocket 4.5 00:34:44 10° N 00:40:58 75° E 00:47:13 10° SSE
Cosmos 1892 3.3 00:38:17 10° NNW 00:41:48 53° W 00:45:15 10° S
ATLAS 5 CENTAUR R/B 1.8 00:40:53 10° S 00:43:41 25° ESE 00:46:37 10° ENE
Cosmos 968 Rocket 3.9 00:41:00 10° NNW 00:46:03 64° WSW 00:51:07 10° S
USA 186 2.1 00:43:57 10° S 00:47:00 62° W 00:50:02 10° NNW
SPOT 5 4.1 00:45:36 18° ESE 00:48:21 28° ENE 00:52:50 10° N
CZ-4 R/B 2.7 00:45:33 10° SSW 00:49:17 39° W 00:52:58 10° NNW
SL-4 R/B 3.6 00:46:56 10° WNW 00:50:08 27° NNW 00:53:11 10° NE
Feng Yun 1-1 Rocket 4.3 00:47:09 10° S 00:52:37 79° WSW 00:58:16 10° NNW
USA 129 1.7 00:51:19 10° N 00:54:01 77° WNW 00:54:47 34° SSW
Cosmos 1455 2.7 00:51:37 10° SSW 00:55:08 57° W 00:58:40 10° N
ERS-1 Rocket 4.3 00:56:20 19° E 00:57:54 22° ENE 01:01:41 10° NNE
CSL-04 Debris 4.3 00:53:40 10° S 00:59:05 76° WSW 01:04:34 10° NNW
Cosmos 1953 4.1 01:00:29 10° SW 01:03:56 32° WNW 01:07:25 10° N
Cosmos 1300 Rocket 3.6 01:01:32 10° SSW 01:05:53 78° W 01:10:17 10° N
MOS 1 4.5 01:02:44 22° SE 01:06:16 55° ENE 01:11:50 10° N
In-Cosmos 22 Rocket 4.1 01:03:29 10° N 01:08:54 79° E 01:13:01 18° SSE
CSL-04 Rocket 4.0 01:04:07 10° S 01:09:36 67° WSW 01:15:06 10° NNW
Cosmos 2181 Rocket 4.3 01:05:38 10° SSW 01:11:45 70° W 01:18:00 10° N
SJ 16-02 1.8 01:10:03 10° NNW 01:14:18 56° WSW 01:17:18 18° S
Okean 2 Rocket 3.9 01:14:49 31° E 01:14:52 31° E 01:18:51 10° NNE
Cosmos 2297 Rocket 4.0 01:12:22 10° N 01:15:50 16° NE 01:17:48 14° ENE
NOSS 3-1 (A) 3.3 01:12:06 10° S 01:16:34 40° ESE 01:21:43 10° NE
IRS-1C Rocket 4.3 01:15:52 32° SE 01:18:03 52° ENE 01:23:10 10° N
Cosmos 2369 Rocket 3.7 01:13:01 10° SW 01:18:18 39° WNW 01:23:36 10° N
CZ-4C R/B 2.8 01:16:22 10° NNE 01:19:51 88° W 01:21:32 28° SSW
Cosmos 1992 Rocket 4.0 01:16:59 10° SSW 01:22:12 84° WNW 01:27:27 10° NNE
MetOp-B 4.2 01:23:41 35° SE 01:25:52 62° ENE 01:31:10 10° N
Cosmos 2098 Rocket 3.6 01:21:18 10° SSW 01:26:45 69° W 01:31:13 10° N
Spot 2 Rocket 4.4 01:27:23 30° E 01:28:06 31° ENE 01:32:31 10° N
Sich 1 Rocket 3.8 01:30:20 45° E 01:30:20 45° E 01:34:32 10° NNE
Okean-O 2.7 01:28:34 31° S 01:30:36 74° WSW 01:35:01 10° NNW
Terra 2.5 01:30:44 34° E 01:31:07 34° ENE 01:35:22 10° N
USA 234 4.2 01:28:21 17° S 01:32:47 38° SW 01:38:48 10° WNW
NOSS 3-1 (C) 3.5 01:35:11 10° SW 01:39:58 62° NW 01:45:44 10° NNE
IRS-1A Rocket 4.3 01:38:01 39° SE 01:40:17 73° ENE 01:46:10 10° N
USA 245 4.2 01:45:21 50° SE 01:46:37 63° ENE 01:51:34 10° N
Ariane Rocket 3.3 01:47:05 46° E 01:47:26 47° ENE 01:52:15 10° N
Okean 1 Rocket 4.0 01:52:36 36° NE 01:52:36 36° NE 01:55:38 10° NNE
Landsat 4 4.1 01:53:50 55° NNW 01:53:50 55° NNW 01:56:40 10° NNW
Okean O Rocket 3.8 01:50:02 10° SW 01:53:20 21° W 01:56:40 10° NW
SPOT 3 Rocket 3.8 01:53:53 48° E 01:54:10 49° ENE 01:59:09 10° N
Nadezhda 3 Rocket 4.2 01:49:58 12° SSW 01:55:37 70° W 02:01:48 10° N
Cosmos 1486 Rocket 3.9 01:53:30 10° NNW 01:58:45 84° WSW 01:59:33 64° S
Resurs 01 Rocket 4.0 01:56:00 10° SW 01:59:05 19° W 02:02:13 10° NW
ATLAS 3B R/B 2.8 01:54:26 10° SW 02:01:27 86° NW 02:09:03 10° NE
USA 281 4.2 01:59:35 20° SSW 02:03:45 41° WSW 02:09:55 10° NW
Cosmos 1605 Rocket 4.1 02:04:07 10° N 02:10:23 55° ENE 02:10:50 54° E
Iridium 4 Rocket 3.5 02:09:52 73° SSE 02:10:24 85° E 02:16:06 10° N
Cosmos 1932 4.3 02:06:58 10° NNW 02:13:13 72° NE 02:13:59 64° ESE
SPOT 5 4.1 02:24:45 34° SW 02:26:08 40° W 02:31:09 10° NNW
ATLAS 5 CENTAUR R/B 3.4 02:24:45 10° W 02:27:31 23° NW 02:30:32 10° NNE
Cosmos 1536 Rocket 4.5 02:24:09 10° NNW 02:28:03 45° W 02:28:03 45° W
SL-4 R/B 4.2 02:27:08 10° NW 02:29:13 18° N 02:29:13 18° N
Cosmos 2227 Rocket 3.4 02:26:29 10° N 02:31:09 30° NE 02:31:09 30° NE
ERS-1 Rocket 3.6 02:36:16 47° WSW 02:36:19 47° W 02:41:10 10° NNW
ARGOS Delta rocket 4.3 02:42:13 68° NNW 02:42:13 68° NNW 02:46:58 10° NNW
Cosmos 1697 Rocket 4.5 02:48:51 20° NE 02:48:51 20° NE 02:50:41 10° NE
CZ-4C R/B 3.7 02:43:00 10° NNW 02:49:38 41° NE 02:51:18 37° ENE
Cosmos 2297 Rocket 2.6 02:55:01 10° NNW 02:59:36 59° NNW 02:59:36 59° NNW
COSMOS 2455 3.2 02:55:46 10° NNW 03:00:56 56° NNE 03:00:56 56° NNE
Terra 3.6 03:09:26 25° W 03:09:26 25° W 03:12:42 10° NW
USA 229 DEB 3.8 03:16:02 60° NNE 03:16:02 60° NNE 03:21:34 10° NE
USA 229 3.9 03:16:15 59° NNE 03:16:15 59° NNE 03:21:42 10° NE
CENTAUR R/B 4.0 03:18:33 10° NNW 03:26:17 44° NE 03:28:19 39° ENE
Cosmos 2263 Rocket 3.7 03:30:24 10° N 03:34:00 30° NNE 03:34:00 30° NNE
ATLAS CENTAUR R/B 4.5 03:37:12 10° NNW 03:37:26 11° NNW 03:37:26 11° NNW
Cosmos 2227 Rocket 3.9 04:10:16 10° NW 04:12:57 26° NW 04:12:57 26° NW
Cosmos 1980 Rocket 3.8 04:21:01 29° NNE 04:21:01 29° NNE 04:23:44 10° NNE
Cosmos 1697 Rocket 4.4 04:30:31 29° NW 04:30:31 29° NW 04:34:27 10° N
NOSS 3-2 (A) 4.3 04:29:51 10° NNW 04:36:40 66° NNE 04:36:40 66° NNE
CZ-4C R/B 3.6 04:31:11 10° NW 04:36:23 46° WNW 04:36:23 46° WNW
Cosmos 2333 Rocket 4.4 05:10:52 18° ENE 05:10:52 18° ENE 05:12:33 10° NE
Cosmos 2360 Rocket 4.2 05:15:07 21° NE 05:15:07 21° NE 05:17:09 10° NE
CENTAUR R/B 3.7 05:09:07 10° NW 05:15:26 51° WNW 05:15:26 51° WNW
Cosmos 2263 Rocket 4.4 05:14:21 10° NW 05:15:40 17° NW 05:15:40 17° NW
Cosmos 2322 Rocket 3.9 05:24:53 27° NE 05:24:53 27° NE 05:27:27 10° NNE
USA 215 3.8 05:23:17 10° NE 05:28:02 52° NE 05:28:02 52° NE
Cosmos 2219 Rocket 4.3 05:32:27 18° ENE 05:32:27 18° ENE 05:34:25 10° NE
SL-16 R/B 3.6 05:40:46 35° N 05:40:46 35° N 05:44:01 10° NNE
NOSS 3-2 (C) 4.2 05:42:21 10° NW 05:48:48 69° NW 05:48:48 69° NW
ADEOS II 4.4 05:53:33 10° NE 05:55:52 15° E 05:55:52 15° E
USA 267 3.7 06:04:36 55° NNW 06:04:36 55° NNW 06:09:41 10° NW
Cosmos 1844 Rocket 4.4 06:00:42 10° NNW 06:02:56 25° NNW 06:02:56 25° NNW
CZ-2D R/B 3.8 06:04:45 10° NE 06:08:14 28° ENE 06:08:14 28° ENE
SL-16 R/B 4.5 06:06:47 13° ESE 06:10:44 23° ENE 06:15:25 10° N
COSMOS 2428 4.0 06:28:39 33° E 06:28:39 33° E 06:32:53 10° NE
Cosmos 2237 Rocket 4.4 06:34:52 15° ESE 06:35:42 15° E 06:38:53 10° ENE
CZ-2C R/B 3.5 06:35:48 46° ENE 06:35:49 46° ENE 06:40:57 10° N
Lacrosse 5 3.0 06:42:19 41° NNE 06:42:19 41° NNE 06:45:56 10° NE
CZ-2C R/B 4.3 06:38:08 10° NNE 06:42:29 36° E 06:42:29 36° E
Cosmos 44 Rocket 4.3 06:44:53 46° NE 06:44:53 46° NE 06:48:31 10° NE
Cosmos 2322 4.3 06:44:17 53° ENE 06:44:17 53° ENE 06:49:02 10° NNE
NPP 4.2 06:39:47 10° NNE 06:44:02 56° NNE 06:44:02 56° NNE
ALOS 4.3 06:42:13 10° NE 06:45:36 20° E 06:45:36 20° E
USA 238 DEB 4.1 06:41:58 10° NW 06:48:03 59° WNW 06:48:03 59° WNW
USA 238 4.0 06:42:04 10° NW 06:48:16 61° WNW 06:48:16 61° WNW
Resurs 1-4 Rocket 2.6 06:44:48 10° NNE 06:49:06 57° NE 06:49:06 57° NE
Cosmos 2333 Rocket 3.1 06:52:51 41° NNW 06:52:51 41° NNW 06:57:17 10° NNE
Cosmos 2360 Rocket 3.3 06:56:51 34° NW 06:56:51 34° NW 07:01:13 10° N
Cosmos 2279 Rocket 4.0 06:50:51 10° N 06:56:36 76° NNW 06:56:36 76° NNW
Nadezhda 4 Rocket 4.4 06:59:27 49° ESE 07:00:20 53° E 07:06:16 10° NNE
Cosmos 972 Rocket 4.4 07:02:51 60° N 07:02:51 60° N 07:07:09 10° NNE
Cosmos 2322 Rocket 3.7 07:06:40 24° NW 07:06:40 24° NW 07:10:53 10° N
Cosmos 1538 Rocket 4.5 07:08:15 56° E 07:08:15 56° E 07:13:18 10° NNE
Cosmos 2278 Rocket 3.7 07:03:07 10° N 07:08:20 35° ENE 07:13:29 10° ESE
IDEFIX/ARIANE 42P 3.1 07:04:40 10° N 07:08:47 51° NNW 07:08:47 51° NNW
USA 215 4.4 07:06:33 10° NE 07:12:18 34° NNW 07:15:22 23° WNW
GP-B 4.3 07:08:28 10° NNE 07:12:33 38° E 07:12:33 38° E
Cosmos 2219 Rocket 2.7 07:14:08 47° NW 07:14:08 47° NW 07:19:02 10° NNE
COBE Rocket 4.4 07:13:49 10° N 07:17:20 49° N 07:17:20 49° N
Gbstr 26 Del rocket 4.0 07:20:36 42° NE 07:20:36 42° NE 07:23:20 10° NE
MSX 4.0 07:17:44 10° N 07:23:18 58° WNW 07:23:18 58° WNW
SL-16 R/B 4.4 07:22:36 13° NW 07:23:31 13° NW 07:26:14 10° NNW
NOSS 3-4 (A) 4.1 07:26:04 36° NW 07:26:37 37° NW 07:32:12 10° NNE
NOSS 3-4 (C) 4.1 07:26:07 36° NW 07:26:40 37° NW 07:32:16 10° NNE
RESURS DK-1 3.2 07:28:45 47° ENE 07:28:45 47° ENE 07:31:51 10° NNE
Cosmos 1151 Rocket 4.4 07:31:09 31° ESE 07:31:59 34° E 07:35:53 10° NNE
BREEZE-M DEB (TANK) 4.3 07:31:47 31° NNW 07:32:39 36° NNE 07:39:43 10° ENE
ADEOS II 2.0 07:31:27 10° N 07:36:41 69° WNW 07:36:45 69° W
FENGYUN 3A 3.5 07:35:51 10° N 07:41:16 74° WNW 07:41:47 68° WSW
Cosmos 1092 Rocket 4.3 07:40:20 29° SSE 07:43:24 60° E 07:49:26 10° NNE
Cosmos 1408 Rocket 4.1 07:41:39 10° NNW 07:44:54 48° NNW 07:44:54 48° NNW
NOSS 2-2 (E) 4.5 07:42:01 10° NNW 07:46:36 64° NE 07:53:07 10° SE
CZ-2D R/B 2.9 07:44:37 10° N 07:49:29 36° WNW 07:49:32 36° WNW
EO 1 Delta rocket 4.3 07:45:11 10° NNE 07:49:46 56° E 07:51:24 36° SSE
Cosmos 2026 Rocket 4.2 07:47:38 29° S 07:50:56 69° E 07:57:15 10° NNE
Envisat 4.0 07:46:55 10° NNE 07:51:45 42° E 07:54:41 21° SSE
SL-16 R/B 2.4 07:51:51 44° SSW 07:53:46 64° WSW 07:59:58 10° NNW
Cosmos 1805 Rocket 3.3 07:58:12 10° N 08:02:33 78° W 08:02:57 69° SSW
UNK 3.6 08:02:06 59° SSW 08:02:49 72° WSW 08:07:25 10° NNW
Cosmos 1500 Rocket 3.5 07:58:44 10° NNW 08:03:03 61° W 08:03:03 61° W
Meteor 1-27 Rocket 3.7 08:04:15 42° SSW 08:06:17 75° W 08:12:01 10° N
Cosmos 1943 Rocket 2.8 08:02:22 10° NNW 08:07:58 58° ENE 08:13:33 10° SE
CZ-4 R/B 3.9 08:04:09 10° NNE 08:08:55 75° ESE 08:10:51 35° S
Thor Agena Rocket 4.4 08:04:22 10° NNE 08:09:11 44° E 08:13:17 14° S
Meteor 2-4 Rocket 4.4 08:06:32 14° SSE 08:11:01 50° E 08:16:19 10° NNE
Cosmos 1627 Rocket 4.4 08:08:19 29° S 08:11:47 84° W 08:18:12 10° N
COSMOS 2428 3.5 08:10:38 32° W 08:11:56 36° WNW 08:17:12 10° N
Cosmos 1733 2.8 08:11:59 10° N 08:15:36 78° W 08:15:45 75° SW
CZ-2C R/B 3.9 08:17:16 23° WNW 08:17:16 23° WNW 08:20:38 10° NW
YAOGAN 6 3.5 08:15:11 10° NNE 08:18:17 39° E 08:19:46 24° SSE
Cosmos 2237 Rocket 2.1 08:16:42 37° SW 08:19:00 76° WNW 08:24:44 10° NNE
BlueWalker 3 2.9 08:15:55 11° NW 08:19:25 47° NNE 08:23:07 10° ESE
Cosmos 1980 3.7 08:18:03 37° SW 08:20:18 70° WNW 08:25:58 10° NNE
Meteor 1-11 Rocket 4.0 08:17:02 10° NNW 08:22:15 42° W 08:23:44 35° SW
CZ-2C R/B 4.0 08:18:10 10° N 08:22:34 30° WNW 08:23:30 28° W
Cosmos 1867 3.8 08:17:31 10° NW 08:22:42 45° WSW 08:27:51 10° S
ALOS 2.7 08:18:40 10° N 08:23:02 42° WNW 08:23:56 37° W
Cosmos 2112 Rocket 4.2 08:20:47 23° S 08:24:05 71° ESE 08:29:26 10° NNE
Lacrosse 5 3.9 08:21:30 11° WNW 08:24:53 20° NNW 08:28:38 10° NNE
ATLAS 2AS CENTAUR R/B 3.4 08:19:52 16° S 08:25:44 54° ESE 08:32:43 10° NE
Sich 1 3.4 08:23:57 10° NNW 08:27:55 39° W 08:28:05 39° W
Resurs 1-4 Rocket 3.8 08:26:06 10° NNW 08:29:16 16° WNW 08:30:10 16° WNW
Cosmos 1340 Rocket 2.6 08:28:56 33° S 08:30:35 87° E 08:34:28 10° N
Meteor 2-9 Rocket 4.4 08:27:39 10° NNW 08:32:46 46° W 08:35:52 23° SSW
Cosmos 1328 Rocket 3.8 08:31:29 15° S 08:35:04 72° E 08:39:30 10° NNE
Cosmos 375 4.4 08:31:59 10° NW 08:35:58 78° SW 08:41:02 10° SSE
Cosmos 1805 3.0 08:32:25 10° N 08:36:07 83° W 08:39:21 13° S
Cosmos 2344 4.2 08:27:31 10° NW 08:36:17 66° WSW 08:48:34 10° SSE
Cosmos 1743 Rocket 4.2 08:33:16 10° NNW 08:37:09 33° W 08:37:38 32° WSW
SWAS 4.4 08:36:22 10° NNW 08:40:35 82° ENE 08:44:47 10° SSE
IRS-1D 3.6 08:35:33 10° NNE 08:40:40 82° ESE 08:45:39 11° SSW
Cosmos 1633 Rocket 3.1 08:39:54 10° N 08:44:16 81° E 08:48:36 10° S
NOSS 2-2 (C) 4.1 08:43:43 10° NW 08:48:24 64° WSW 08:55:03 10° SSE
Cosmos 1680 Rocket 3.7 08:47:51 22° SW 08:51:12 58° WNW 08:56:28 10° NNE
Cosmos 2278 Rocket 2.7 08:47:13 10° NW 08:52:22 36° WSW 08:57:28 10° S
Cosmos 1420 Rocket 4.0 08:55:18 10° NNW 09:00:30 63° WSW 09:05:42 10° S
Iridium 51 3.8 08:58:49 10° S 09:02:12 87° E 09:05:33 10° N
Cosmos 1461 3.6 09:00:57 10° WNW 09:04:08 26° WSW 09:07:19 10° S
Cosmos 2056 Rocket 3.5 08:59:03 10° NNW 09:04:25 70° WSW 09:09:47 10° S
RESURS DK-1 4.4 09:04:22 12° WNW 09:05:59 14° NW 09:08:14 10° NNW
Cosmos 494 Rocket 4.2 09:03:45 10° SSW 09:08:54 74° ESE 09:14:03 10° NNE
Cosmos 1151 Rocket 4.4 09:07:55 17° W 09:09:32 21° WNW 09:12:48 10° NNW
SL-16 R/B 2.2 09:03:54 10° SSW 09:09:33 86° ESE 09:15:14 10° NNE
CZ-2C R/B 2.9 09:04:48 10° N 09:09:46 48° WNW 09:14:38 10° SW
Cosmos 1553 Rocket 4.1 09:04:09 10° NNW 09:10:18 58° W 09:16:19 10° S
NOSS 3-1 (C) 4.4 09:04:14 10° NNW 09:11:41 73° NE 09:20:40 10° SE
Cosmos 1674 3.5 09:08:48 10° SSE 09:12:05 46° E 09:15:24 10° NNE
PAYLOAD A 4.2 09:08:32 10° N 09:13:17 49° WNW 09:17:53 10° SW
Cosmos 1939 Rocket 4.2 09:12:15 10° NNE 09:15:48 38° E 09:19:20 10° SSE
USA 308 3.0 09:12:46 13° SW 09:16:00 57° SE 09:19:51 10° ENE
Cosmos 1766 3.0 09:12:23 10° N 09:16:05 89° W 09:19:46 10° S
Cosmos 1624 Rocket 4.1 09:11:40 10° NNW 09:16:47 54° WSW 09:21:48 10° S
Cosmos 1656 Rocket 4.5 09:11:27 10° NNW 09:16:47 54° ENE 09:22:03 10° SE
Cosmos 1340 3.1 09:16:18 10° NNW 09:19:23 32° W 09:22:26 10° SSW
Cosmos 921 Rocket 3.4 09:16:42 12° SW 09:20:22 42° WNW 09:24:30 10° N
Cosmos 1626 2.3 09:18:46 10° SSW 09:21:50 39° WNW 09:24:57 10° N
Cosmos 1975 3.7 09:19:02 10° NNW 09:22:18 27° W 09:25:34 10° SSW
KORONAS-FOTON 4.4 09:19:52 10° S 09:23:28 56° E 09:27:03 10° NNE
Intercosmos 25 Rocket 4.3 09:20:58 10° NNW 09:24:09 30° W 09:28:27 10° SSW
Cosmos 1515 Rocket 3.5 09:20:21 10° SSW 09:24:47 72° W 09:29:14 10° N
ATLAS 5 CENTAUR R/B 2.5 09:25:13 10° NNW 09:30:18 75° NE 09:36:35 10° SE
Cosmos 1470 Rocket 3.7 09:26:06 10° NNW 09:30:21 50° W 09:34:37 10° SSW
Envisat 4.2 09:26:25 10° NNW 09:30:28 25° WNW 09:34:31 10° WSW
CBERS-1 4.0 09:25:42 10° NNE 09:30:49 85° WNW 09:35:55 10° SSW
Cosmos 1484 Rocket 2.5 09:27:49 10° N 09:31:27 78° WNW 09:35:00 10° SSW
ATLAS 3B R/B 3.8 09:26:03 10° NNW 09:33:44 57° NE 09:41:18 10° SE
BREEZE-M DEB (TANK) 2.6 09:34:39 10° W 09:39:10 41° NNW 09:41:22 10° NE
H-2A R/B 2.9 09:36:17 10° NNE 09:39:37 64° E 09:42:55 10° S
Cosmos 1908 4.3 09:37:29 10° N 09:41:03 47° E 09:44:34 10° SSE
